Weather History for KDEN

Nearest airport to NA, NA.

See history from more local stations
Change the Weather History Date:

Monday, April 15, 2013

  Actual Average Record
Temperature  
Mean Temperature 30 °F 47 °F  
Max Temperature 37 °F 61 °F 84 °F (2002)
Min Temperature 23 °F 33 °F 18 °F (1902)
Degree Days  
Heating Degree Days 35 18  
Month to date heating degree days 362 291  
Since 1 July heating degree days 5474 5493  
Cooling Degree Days 0 0  
Month to date cooling degree days 0 0  
Year to date cooling degree days 0 0  
Moisture  
Dew Point 21 °F    
Average Humidity 66    
Maximum Humidity 92    
Minimum Humidity 40    
Precipitation  
Precipitation 0.47 in 0.06 in 1.80 in (1950)
Month to date precipitation 1.18 0.69  
Year to date precipitation 3.73 2.39  
Snow  
Snow 7.00 in - - ()
Month to date snowfall 13.6  
Since 1 July snowfall 68.2  
Snow Depth 0.00 in    
Sea Level Pressure  
Sea Level Pressure 29.86 in    
Wind  
Wind Speed 13 mph (NNE)    
Max Wind Speed 25 mph    
Max Gust Speed 29 mph    
Visibility 4 miles    
Events Fog , Snow    
T = Trace of Precipitation, MM = Missing Value Source: NWS Daily Summary

Daily Weather History Graph

Daily Weather History Graph

Search for Another Location

Airport or City:

Trip Planner

Search our weather history database for the weather conditions in past years. The results will help you decide how hot, cold, wet, or windy it might be!

Date:

Astronomy

Apr. 15, 2013 Rise Set
Actual Time 6:20 AM MDT 7:37 PM MDT
Civil Twilight 5:52 AM MDT 8:05 PM MDT
Nautical Twilight 5:19 AM MDT 8:38 PM MDT
Astronomical Twilight 4:43 AM MDT 9:14 PM MDT
Moon 9:49 AM MDT (4/15) No Moon Set
Length of Visible Light 14h 12m
Length of Day
13h 16m
Waxing Crescent, 25% of the Moon is Illuminated
Apr 15
Waxing Crescent
Apr 18
First Quarter
Apr 25
Full
May 2
Last Quarter
May 9
New

Hourly Weather History & Observations

Time (MDT) Temp. Windchill Dew Point Humidity Pressure Visibility Wind Dir Wind Speed Gust Speed Precip Events Conditions
12:53 AM 36.0 °F 27.1 °F 14.0 °F 41% 29.68 in 10.0 mi ESE 13.8 mph - N/A   Overcast
1:53 AM 36.0 °F 29.6 °F 14.0 °F 41% 29.71 in 10.0 mi East 8.1 mph - N/A   Overcast
2:53 AM 35.1 °F 25.2 °F 19.9 °F 54% 29.71 in 10.0 mi SE 16.1 mph - N/A   Overcast
3:53 AM 33.1 °F 22.2 °F 23.0 °F 66% 29.69 in 10.0 mi East 17.3 mph - N/A   Overcast
4:53 AM 33.1 °F 23.0 °F 19.9 °F 59% 29.66 in 10.0 mi East 15.0 mph - N/A   Overcast
5:53 AM 30.9 °F 18.4 °F 23.0 °F 72% 29.69 in 10.0 mi East 20.7 mph - N/A   Mostly Cloudy
6:53 AM 30.0 °F 18.3 °F 21.9 °F 72% 29.72 in 10.0 mi East 17.3 mph - N/A   Mostly Cloudy
7:53 AM 30.0 °F 17.5 °F 23.0 °F 75% 29.76 in 10.0 mi East 19.6 mph 25.3 mph N/A   Overcast
8:08 AM 30.2 °F 17.4 °F 23.0 °F 75% 29.76 in 10.0 mi East 20.7 mph - N/A   Overcast
8:53 AM 30.0 °F 17.9 °F 21.9 °F 72% 29.79 in 10.0 mi East 18.4 mph 25.3 mph N/A   Overcast
9:53 AM 30.9 °F 20.2 °F 21.0 °F 67% 29.80 in 10.0 mi ENE 15.0 mph - N/A   Overcast
10:53 AM 32.0 °F 20.1 °F 21.0 °F 64% 29.80 in 10.0 mi ENE 19.6 mph - 0.00 in Snow Light Snow
11:46 AM 32.0 °F 19.2 °F 23.0 °F 69% 29.78 in 9.0 mi NNE 23.0 mph - 0.00 in Snow Light Snow
11:53 AM 32.0 °F 19.2 °F 23.0 °F 69% 29.81 in 9.0 mi NNE 23.0 mph - 0.00 in Snow Light Snow
12:53 PM 37.0 °F 27.7 °F 21.0 °F 52% 29.75 in 10.0 mi NE 16.1 mph - 0.00 in   Overcast
1:41 PM 32.0 °F 20.8 °F 24.8 °F 75% 29.81 in 2.0 mi NNW 17.3 mph - 0.00 in Snow Light Snow
1:53 PM 30.0 °F 18.3 °F 25.0 °F 82% 29.83 in 1.0 mi North 17.3 mph - 0.00 in Snow Light Snow
2:04 PM 28.4 °F 15.8 °F 24.8 °F 86% 29.82 in 1.0 mi North 18.4 mph - 0.00 in Snow Light Snow
2:41 PM 28.4 °F 17.5 °F 24.8 °F 86% 29.82 in 2.0 mi NNW 13.8 mph - 0.00 in Snow Light Snow
2:53 PM 28.0 °F 16.5 °F 24.1 °F 85% 29.85 in 0.8 mi NNW 15.0 mph - 0.00 in Snow Light Snow
3:11 PM 28.4 °F 19.1 °F 24.8 °F 86% 29.83 in 0.8 mi North 10.4 mph - 0.01 in Snow Light Snow
3:53 PM 27.0 °F 16.1 °F 24.1 °F 89% 29.87 in 0.2 mi NNE 12.7 mph - 0.02 in Fog , Snow Snow
4:03 PM 26.6 °F 15.7 °F 23.0 °F 86% 29.83 in 0.5 mi North 12.7 mph - 0.01 in Fog , Snow Snow
4:15 PM 26.6 °F 16.2 °F 23.0 °F 86% 29.84 in 0.2 mi North 11.5 mph - 0.01 in Fog , Snow Snow
4:22 PM 26.6 °F 15.2 °F 23.0 °F 86% 29.84 in 0.2 mi North 13.8 mph - 0.03 in Fog , Snow Snow
4:37 PM 26.6 °F 14.7 °F 21.2 °F 80% 29.85 in 0.2 mi North 15.0 mph - 0.03 in Fog , Snow Snow
4:44 PM 24.8 °F 11.5 °F 21.2 °F 86% 29.83 in 0.2 mi North 17.3 mph - 0.04 in Fog , Snow Heavy Snow
4:47 PM 24.8 °F 11.5 °F 21.2 °F 86% 29.83 in 0.2 mi North 17.3 mph - 0.04 in Fog Light Freezing Fog
4:53 PM 25.0 °F 13.1 °F 21.0 °F 85% 29.88 in 0.2 mi North 13.8 mph - 0.04 in Fog , Snow Heavy Snow
4:56 PM 24.8 °F 12.9 °F 21.2 °F 86% 29.84 in 0.2 mi North 13.8 mph - 0.00 in Fog , Snow Snow
5:07 PM 24.8 °F 14.6 °F 21.2 °F 86% 29.86 in 0.5 mi North 10.4 mph - 0.03 in Snow Light Snow
5:12 PM 24.8 °F 13.4 °F 21.2 °F 86% 29.85 in 0.5 mi North 12.7 mph - 0.03 in Snow Light Snow
5:22 PM 24.8 °F 13.4 °F 19.4 °F 80% 29.84 in 1.2 mi North 12.7 mph - 0.03 in Snow Light Snow
5:26 PM 24.8 °F 14.0 °F 19.4 °F 80% 29.84 in 0.2 mi North 11.5 mph - 0.03 in Snow Light Snow
5:44 PM 24.8 °F 14.0 °F 19.4 °F 80% 29.88 in 0.2 mi North 11.5 mph - 0.04 in Fog , Snow Snow
5:53 PM 24.1 °F 13.7 °F 19.9 °F 84% 29.95 in 0.2 mi North 10.4 mph - 0.04 in Fog , Snow Snow
6:01 PM 24.8 °F 16.1 °F 19.4 °F 80% 29.90 in 0.2 mi North 8.1 mph - 0.01 in Fog , Snow Heavy Snow
6:53 PM 23.0 °F 12.4 °F 19.0 °F 85% 29.98 in 0.2 mi North 10.4 mph - 0.07 in Fog , Snow Snow
7:20 PM 23.0 °F 15.8 °F 19.4 °F 86% 29.93 in 0.2 mi North 5.8 mph - 0.03 in Fog , Snow Heavy Snow
7:53 PM 23.0 °F 14.7 °F 19.0 °F 85% 29.98 in 0.2 mi ENE 6.9 mph - 0.10 in Fog , Snow Heavy Snow
8:16 PM 23.0 °F 15.8 °F 19.4 °F 86% 29.93 in 0.2 mi NNE 5.8 mph - 0.02 in Snow Light Snow
8:19 PM 23.0 °F 14.7 °F 19.4 °F 86% 29.93 in 0.5 mi NNE 6.9 mph - 0.02 in Snow Light Snow
8:45 PM 23.0 °F 11.7 °F 19.4 °F 86% 29.96 in 0.5 mi NW 11.5 mph - 0.04 in Fog , Snow Snow
8:53 PM 23.0 °F 12.4 °F 19.0 °F 85% 30.02 in 0.5 mi NNW 10.4 mph - 0.05 in Snow Light Snow
9:53 PM 23.0 °F - 19.0 °F 85% 30.05 in 0.5 mi Calm Calm - 0.06 in Fog , Snow Snow
10:07 PM 23.0 °F 17.0 °F 19.4 °F 86% 29.98 in 0.5 mi NNW 4.6 mph - 0.02 in Snow Light Snow
10:18 PM 23.0 °F 15.8 °F 19.4 °F 86% 29.99 in 0.5 mi NNW 5.8 mph - 0.02 in Snow Light Snow
10:53 PM 24.1 °F - 19.9 °F 84% 30.05 in 0.5 mi Calm Calm - 0.05 in Snow Light Snow
11:21 PM 23.0 °F - 17.6 °F 80% 29.99 in 0.5 mi Calm Calm - 0.02 in Snow Light Snow
11:29 PM 23.0 °F 18.4 °F 19.4 °F 86% 29.98 in 0.5 mi NNE 3.5 mph - 0.02 in Snow Light Snow
11:37 PM 23.0 °F - 19.4 °F 86% 29.99 in 2.0 mi Calm Calm - 0.02 in Snow Light Snow
11:53 PM 23.0 °F - 19.0 °F 85% 30.06 in 2.0 mi Calm Calm - 0.02 in Snow Light Snow